SCP
0 0 0 0 0 0 0 0 1 2 1 1 1 2 3 4 4 3 4 5 5 6 8 10 11 13 16 19 19 16 15 15 13 10 9 8 7 6 7 8 9 8 6 5
0 0 0 0 0 0 0 0 1 1 1 1 1 2 3 4 3 3 4 4 5 6 8 11 13 15 16 18 18 17 17 17 15 13 11 9 8 7 7 7 8 7 6 5
0 0 0 0 0 0 0 0 0 1 1 1 1 2 3 3 3 4 5 4 4 5 7 10 14 15 14 15 16 17 18 19 18 16 12 10 10 10 8 8 8 6 5 6
0 0 0 0 0 0 0 0 0 1 1 1 1 1 2 3 4 5 5 5 5 6 8 10 12 13 12 11 12 15 18 21 21 18 14 11 11 11 11 10 9 7 6 6
0 0 0 0 0 0 0 0 0 0 0 0 0 1 2 3 4 4 4 4 6 8 9 11 12 12 12 11 11 13 16 19 20 18 15 12 11 11 12 12 11 8 7 6
0 0 0 0 0 0 0 0 0 0 0 0 0 1 2 2 2 3 3 4 4 6 8 9 12 13 13 12 11 12 13 15 15 15 13 11 10 9 10 11 11 9 8 7
0 0 0 0 0 0 0 0 0 0 0 0 0 1 2 2 2 2 3 3 3 4 6 7 9 13 15 13 11 11 12 11 10 10 10 9 8 8 9 11 11 9 8 7
0 0 0 0 0 0 0 0 0 0 0 0 1 1 2 2 2 2 2 3 3 5 5 5 7 12 14 12 10 10 10 9 8 8 8 8 8 8 10 12 11 9 6 5
0 0 0 0 0 0 0 0 0 0 0 0 0 1 2 2 2 2 3 3 4 5 5 4 6 10 12 11 10 10 10 9 8 9 9 9 8 8 10 11 9 6 4 3
0 0 0 0 0 0 0 0 0 0 0 0 0 1 2 3 3 3 4 4 5 5 4 4 4 7 11 12 10 11 11 9 8 9 11 11 9 8 8 7 5 4 3 3
0 0 0 0 0 0 0 0 0 0 0 0 0 1 2 3 3 3 4 4 4 4 4 3 3 5 10 12 12 11 10 9 7 9 12 13 11 9 6 5 4 3 2 2
0 0 0 0 0 0 0 0 0 0 0 0 0 1 1 2 2 2 2 3 3 3 4 3 2 4 10 13 13 12 10 8 7 9 12 14 13 9 6 4 3 3 2 2
0 0 0 0 0 0 0 0 0 0 0 0 0 1 1 1 1 1 2 2 2 4 5 5 3 4 8 11 12 11 9 7 7 8 12 14 12 9 6 4 3 2 2 2
0 0 0 0 0 0 0 0 0 0 0 0 0 1 1 1 1 2 2 2 2 4 6 5 5 5 5 8 9 9 8 7 7 8 11 12 10 7 5 3 2 2 2 2
0 0 0 0 0 0 0 0 0 0 0 0 1 1 1 2 2 2 2 2 3 5 5 4 5 5 5 6 7 8 8 7 7 7 9 9 7 5 3 2 2 2 2 2
0 0 0 0 0 0 0 0 0 0 1 1 1 1 1 2 2 2 2 2 3 4 3 3 3 4 5 6 7 7 7 7 6 6 6 6 5 4 2 2 2 1 2 2
0 0 0 0 0 0 0 0 0 0 1 1 1 1 1 1 1 2 1 2 2 2 2 2 2 3 5 6 6 6 5 5 4 4 4 4 4 3 2 1 1 1 1 1
0 0 0 0 0 0 0 0 0 0 1 1 1 1 1 1 1 1 1 1 1 1 1 1 1 2 3 5 5 4 3 3 3 3 3 3 3 3 2 1 1 1 1 2
0 0 0 0 0 0 0 0 0 0 1 1 1 1 1 0 0 1 1 1 1 1 1 1 1 1 3 4 4 3 2 2 2 2 2 2 2 2 2 1 1 1 1 2
0 0 0 0 0 0 0 0 0 0 0 1 1 1 0 0 0 1 1 1 2 1 1 1 1 1 2 4 5 4 3 2 1 1 1 2 2 2 2 2 2 1 1 1
0 0 0 0 0 0 0 0 0 0 0 0 0 0 0 0 0 1 1 2 2 1 1 1 1 1 2 4 5 5 4 2 1 1 1 2 2 2 2 2 2 1 1 1
0 0 0 0 0 0 0 0 0 1 0 0 0 0 0 0 0 1 1 2 2 2 1 1 1 1 1 3 5 5 4 3 1 1 1 2 2 2 2 2 2 1 1 1
0 0 0 0 1 1 1 1 1 0 0 0 0 0 0 0 0 0 1 2 2 1 1 1 0 1 1 3 4 5 4 3 1 1 1 1 2 2 2 2 1 1 1 1
0 1 1 1 1 1 1 1 0 0 0 0 0 0 0 0 0 0 1 1 1 1 1 0 0 0 1 2 4 4 4 2 1 1 1 1 1 1 1 1 1 1 1 1
0 0 1 1 1 1 0 0 0 0 0 0 0 0 0 0 0 0 1 1 1 1 1 0 0 0 1 2 3 4 3 2 1 1 1 1 1 1 1 1 1 1 1 1
0 0 1 1 1 1 0 0 0 0 0 0 0 0 0 0 0 0 1 1 1 1 1 0 1 1 1 2 3 3 3 2 1 1 1 1 1 1 1 1 1 0 0 0
Wind_Speed
9 9 7 5 6 9 12 11 9 8 5 6 5 6 5 3 3 3 3 4 3 3 3 4 5 5 6 5 4 3 2 2 1 1 1 1 1 0 1 1 1 0 1 1
8 8 5 5 7 10 11 10 10 7 5 6 7 8 6 5 4 4 4 3 3 3 4 5 5 5 5 5 4 3 2 2 1 1 1 1 1 1 1 1 1 0 0 1
6 7 6 8 9 8 9 9 10 9 9 10 10 8 5 4 3 5 4 3 3 3 4 5 5 4 4 4 4 3 3 2 1 0 0 0 0 0 1 1 1 0 1 1
6 6 7 9 9 8 8 8 10 10 10 9 9 8 4 3 2 4 4 4 2 3 4 4 6 5 4 3 4 3 3 2 1 1 0 1 1 1 0 0 0 0 1 0
7 7 9 8 7 8 10 11 12 13 11 12 9 8 4 3 2 3 3 3 3 3 3 4 4 5 4 3 3 4 3 2 2 1 1 1 1 1 1 0 0 1 1 1
8 6 5 7 7 7 8 11 13 11 8 10 7 7 4 2 2 2 3 4 3 2 4 4 4 4 4 3 3 4 4 3 2 2 1 1 1 1 1 1 1 1 1 1
8 5 3 5 8 7 8 8 7 6 5 6 6 4 2 3 2 2 4 4 4 3 4 4 3 4 4 3 1 2 3 2 2 2 1 1 1 1 1 1 1 2 1 1
9 7 5 6 7 7 7 7 7 7 9 9 7 3 2 3 3 4 5 4 5 4 4 3 3 3 3 3 1 1 1 1 1 1 1 0 0 0 0 1 1 2 2 2
10 10 11 10 9 7 7 7 8 7 9 9 5 2 1 3 5 6 5 4 3 4 3 3 3 3 3 3 2 1 1 1 0 0 1 1 1 0 1 1 1 1 2 2
9 12 11 10 10 7 7 8 6 6 6 6 7 5 4 4 6 5 4 3 4 4 4 3 3 3 2 1 2 2 1 0 1 2 1 0 0 0 0 1 1 2 2 3
9 8 10 10 8 9 8 7 7 7 7 6 7 4 3 4 4 3 3 4 4 4 4 2 2 2 2 2 2 2 1 1 1 1 1 0 0 0 1 1 1 1 2 2
9 7 10 13 9 7 7 6 6 6 8 8 7 4 2 4 4 5 6 6 5 3 2 2 2 2 1 1 1 0 1 1 0 1 1 1 1 0 1 1 1 2 2 2
8 6 8 7 4 5 9 9 9 8 8 7 7 3 2 5 5 5 5 5 4 3 3 3 2 2 2 2 1 1 1 1 0 1 1 1 1 1 1 1 1 2 2 2
5 7 8 9 11 12 13 12 11 9 7 8 7 7 6 6 7 6 5 5 4 4 4 3 2 2 2 2 2 3 2 1 1 0 1 0 1 1 1 1 1 2 2 2
5 7 10 11 13 13 14 11 10 8 8 7 8 8 8 7 7 6 6 5 5 5 5 5 4 2 1 2 2 3 3 2 1 0 0 1 1 1 0 1 1 2 2 2
4 7 10 12 12 11 12 10 7 6 7 7 7 7 7 7 7 7 6 5 5 5 6 5 5 3 1 1 2 2 3 2 1 1 1 1 1 1 0 0 1 1 2 2
6 8 10 11 12 10 6 8 9 8 8 8 7 7 7 7 8 8 6 5 5 5 5 5 5 3 2 1 1 2 3 2 2 2 2 1 1 0 0 1 1 2 2 2
6 7 6 9 10 7 3 7 9 7 8 9 8 8 9 7 7 6 6 6 5 6 5 5 5 4 3 1 0 1 2 1 2 3 2 1 0 0 0 1 1 2 2 2
3 4 6 6 8 7 4 8 10 8 6 8 8 8 8 7 6 4 7 7 5 5 4 3 3 3 3 2 1 1 1 1 2 3 1 1 0 0 1 1 1 1 2 2
2 3 5 8 9 8 6 9 10 7 2 10 11 10 9 8 6 5 6 6 5 5 4 3 3 3 3 2 1 1 1 2 3 3 2 1 0 1 1 1 1 2 2 2
5 5 6 8 8 4 7 11 9 6 6 11 10 8 8 7 6 4 4 5 4 4 3 3 3 3 3 2 2 1 1 2 3 3 1 1 0 0 1 0 1 2 2 3
7 6 6 6 7 3 10 10 8 6 7 8 8 8 7 5 4 4 5 4 3 3 2 3 3 3 2 2 1 2 2 2 2 2 1 0 0 1 1 0 1 2 2 3
4 5 5 5 5 6 6 5 5 6 7 7 7 6 6 5 4 4 4 3 3 2 2 3 3 3 2 2 2 2 2 2 2 1 1 1 0 0 1 1 2 2 2 2
6 5 6 7 6 8 7 6 7 6 7 8 7 6 5 6 5 4 3 3 3 3 2 3 3 3 2 1 2 2 2 2 2 1 1 1 1 1 1 1 1 1 1 1
10 8 8 8 7 8 8 9 9 8 8 8 6 6 6 6 5 4 2 2 2 2 2 2 2 3 3 2 2 2 2 2 1 1 2 2 2 1 1 1 1 2 1 1
7 6 6 7 8 8 9 9 10 8 7 7 6 6 6 6 5 4 2 1 2 2 1 2 3 3 3 3 2 2 2 2 2 2 2 2 2 1 2 1 1 1 3 3
Wind_Direction
240 246 260 287 290 287 283 291 286 286 302 297 286 277 260 226 201 176 165 156 154 150 147 131 128 135 134 128 131 137 152 133 138 175 196 226 202 162 142 136 119 146 274 293
259 261 281 282 282 279 283 292 291 296 299 287 272 258 238 218 195 182 177 159 154 156 133 130 129 133 136 138 141 148 148 140 181 176 185 213 204 212 124 61 87 69 330 290
288 307 305 289 282 290 294 295 304 314 312 294 279 262 234 215 182 151 141 135 148 163 150 150 141 134 141 145 150 156 157 152 173 132 145 55 150 254 86 76 90 51 346 343
277 294 298 291 295 306 304 323 313 301 297 290 291 287 265 225 187 140 132 125 139 143 144 139 141 143 140 147 151 143 132 129 177 157 191 217 205 251 253 186 124 276 238 241
294 293 289 293 309 313 319 321 307 296 289 284 280 282 274 252 208 137 122 110 101 113 116 108 122 134 133 148 155 142 129 142 164 170 204 257 292 318 9 345 145 249 247 237
298 300 306 323 322 324 327 318 310 299 285 277 289 289 301 335 315 134 140 120 104 112 115 103 111 121 124 131 141 136 147 156 171 181 183 232 270 283 289 290 258 256 254 241
308 300 306 333 325 337 336 325 317 309 292 295 321 314 329 33 7 108 137 121 124 111 105 116 121 125 113 107 107 133 137 155 172 176 180 207 253 270 264 273 271 284 293 283
325 316 334 333 323 317 310 302 303 314 312 310 307 317 351 27 43 74 87 93 101 92 82 91 96 112 123 110 82 95 121 135 160 151 169 159 167 249 290 326 309 303 305 311
337 324 325 317 314 305 301 298 309 299 288 294 305 316 355 52 47 57 68 68 81 83 66 58 81 89 95 109 106 74 70 80 27 239 237 192 188 293 305 306 301 324 332 306
327 315 312 315 309 298 308 307 307 296 303 306 310 338 350 10 15 26 38 48 48 47 55 52 59 54 66 90 139 127 126 211 228 218 232 246 123 305 305 310 334 332 320 320
332 313 310 311 307 317 321 322 328 319 316 309 304 325 11 356 4 5 25 46 48 36 20 28 52 50 44 34 75 133 172 213 226 223 189 193 227 176 322 311 315 321 322 315
351 323 304 297 298 303 311 328 335 322 317 305 304 307 339 10 8 15 32 32 34 35 9 4 28 32 35 13 40 226 234 240 219 178 175 182 235 282 299 315 314 312 304 306
345 317 305 313 333 344 333 336 331 322 305 296 300 304 35 13 12 23 29 28 17 2 15 16 22 3 352 357 9 350 307 307 304 166 169 168 224 274 293 297 302 303 303 309
300 290 298 303 310 314 314 318 323 322 310 311 315 323 350 2 2 14 22 23 11 4 14 9 3 9 0 350 358 343 325 305 265 215 145 181 232 263 287 295 306 296 305 310
319 295 303 303 301 299 300 308 314 313 312 308 316 335 357 1 4 8 14 12 8 4 4 358 354 5 358 344 351 351 333 331 316 298 217 228 235 247 278 300 316 316 317 318
314 301 304 293 289 293 303 321 327 330 340 338 345 354 8 2 6 9 7 3 355 355 355 355 353 346 346 329 337 335 314 315 292 258 244 224 216 221 254 279 335 335 332 336
308 311 306 299 307 303 314 357 360 0 2 354 357 358 1 2 2 359 356 359 356 352 351 354 344 342 337 336 338 316 309 327 310 279 255 228 222 260 258 318 2 355 346 347
277 305 299 298 308 299 9 11 2 357 8 13 12 8 3 4 5 5 13 8 360 349 351 354 346 347 347 335 298 314 313 315 301 289 262 256 111 153 333 11 8 1 340 329
226 274 292 298 305 301 331 3 353 339 1 24 9 359 349 350 345 3 12 360 353 355 360 360 352 346 344 350 5 319 298 307 293 296 303 3 341 94 20 19 5 353 336 335
257 248 269 285 294 304 356 356 338 316 10 13 360 352 347 345 339 351 356 348 5 19 24 14 352 354 357 10 8 319 324 322 306 311 309 321 35 51 39 27 351 327 313 306
304 281 275 286 288 304 6 0 345 343 353 344 346 350 350 352 348 349 351 0 23 27 16 356 348 356 2 5 350 325 324 314 305 306 306 12 28 224 149 50 314 300 300 306
311 305 302 301 295 326 5 4 4 345 329 334 342 349 353 356 1 355 353 356 3 11 356 338 343 353 1 1 326 297 306 306 309 312 332 30 315 301 8 253 276 285 291 301
307 323 315 314 319 339 353 6 350 332 326 332 334 341 338 337 338 339 339 344 346 349 342 326 334 340 348 343 310 298 295 295 296 313 351 332 305 266 292 282 283 289 285 297
314 336 310 305 314 329 337 341 340 333 330 328 333 334 327 327 328 333 334 341 342 339 329 325 331 325 320 308 293 294 278 270 276 316 304 270 251 252 264 277 286 297 318 340
304 305 298 292 307 313 318 332 332 331 328 330 336 331 325 320 320 320 315 320 321 317 315 318 310 308 303 291 282 277 264 248 265 288 264 263 260 245 257 247 274 294 333 323
287 296 296 299 318 313 312 313 315 319 319 323 326 323 317 313 310 305 305 302 296 293 285 297 291 294 292 284 268 258 253 238 235 259 263 266 258 239 243 242 275 241 229 242